EW4729 Weather Reports


Display with metric or nautical units.
time (UTC)temp
F
wind
direction
speed
MPH
gust
MPH
rain 1hr
in
rain 24hr
in
rain mn
in
humidity
%
barometer
mb
20260831024606 86 192 4.0 7.0 0.00 0.00 0.00 74 1014.9
20260831024052 86 183 3.0 6.0 0.00 0.00 0.00 73 1014.8
20260831023552 86 188 2.0 5.0 0.00 0.00 0.00 72 1014.7
20260831023101 86 178 2.0 7.0 0.00 0.00 0.00 71 1014.6
20260831022552 87 178 3.0 7.0 0.00 0.00 0.00 71 1014.5
20260831022054 87 173 3.0 9.0 0.00 0.00 0.00 70 1014.4
20260831021605 87 197 3.0 9.0 0.00 0.00 0.00 70 1014.3
20260831021057 87 182 4.0 10.0 0.00 0.00 0.00 70 1014.1
20260831020555 87 184 4.0 10.0 0.00 0.00 0.00 69 1014.1
20260831020106 87 194 4.0 9.0 0.00 0.00 0.00 69 1014.1
20260831015554 88 182 3.0 7.0 0.00 0.00 0.00 68 1014.1
20260831015054 88 181 3.0 9.0 0.00 0.00 0.00 68 1013.9
20260831014604 88 169 2.0 10.0 0.00 0.00 0.00 68 1013.9
20260831014055 88 157 2.0 10.0 0.00 0.00 0.00 67 1013.8
20260831013553 88 142 3.0 8.0 0.00 0.00 0.00 66 1013.8
20260831013059 88 155 3.0 7.0 0.00 0.00 0.00 66 1013.7
20260831012553 89 181 3.0 7.0 0.00 0.00 0.00 65 1013.8
20260831012055 89 124 3.0 7.0 0.00 0.00 0.00 64 1013.7
20260831011607 89 154 2.0 5.0 0.00 0.00 0.00 62 1013.7
20260831011051 89 152 1.0 5.0 0.00 0.00 0.00 61 1013.7
20260831010555 90 157 1.0 5.0 0.00 0.00 0.00 61 1013.6
20260831010113 90 158 1.0 8.0 0.00 0.00 0.00 60 1013.6
20260831005554 90 0 2.0 8.0 0.00 0.00 0.00 60 1013.6
20260831005055 91 167 3.0 7.0 0.00 0.00 0.00 59 1013.6
20260831004606 91 161 2.0 7.0 0.00 0.00 0.00 59 1013.5
20260831004052 92 176 2.0 6.0 0.00 0.00 0.00 58 1013.5
20260831003551 92 140 2.0 6.0 0.00 0.00 0.00 58 1013.5
20260831003110 92 164 3.0 6.0 0.00 0.00 0.00 58 1013.5
20260831002551 92 174 2.0 6.0 0.00 0.00 0.00 58 1013.5
20260831002055 93 176 0.0 6.0 0.00 0.00 0.00 58 1013.4
20260831001604 93 172 1.0 6.0 0.00 0.00 0.00 58 1013.4
20260831001052 93 155 2.0 7.0 0.00 0.00 0.00 57 1013.4
20260831000555 93 153 2.0 7.0 0.00 0.00 0.00 57 1013.5
20260830235554 93 163 3.0 8.0 0.00 0.00 0.00 57 1013.4
20260830235051 93 141 3.0 9.0 0.00 0.00 0.00 57 1013.5
20260830234608 93 176 4.0 11.0 0.00 0.00 0.00 56 1013.6
20260830234051 93 179 6.0 11.0 0.00 0.00 0.00 56 1013.6
20260830233552 93 190 4.0 16.0 0.00 0.00 0.00 57 1013.6
20260830233104 93 190 6.0 16.0 0.00 0.00 0.00 57 1013.7
20260830232552 93 191 7.0 13.0 0.00 0.00 0.00 56 1013.6
20260830232051 94 191 6.0 17.0 0.00 0.00 0.00 56 1013.5
20260830231613 94 168 6.0 17.0 0.00 0.00 0.00 56 1013.5
20260830231054 94 193 7.0 16.0 0.00 0.00 0.00 55 1013.6
20260830230554 94 112 4.0 12.0 0.00 0.00 0.00 55 1013.6
20260830230058 94 171 3.0 12.0 0.00 0.00 0.00 55 1013.5
20260830225554 94 161 5.0 13.0 0.00 0.00 0.00 55 1013.5
20260830225052 95 155 6.0 14.0 0.00 0.00 0.00 55 1013.5
20260830224609 95 177 7.0 18.0 0.00 0.00 0.00 54 1013.5
20260830224051 95 123 6.0 18.0 0.00 0.00 0.00 54 1013.4
20260830223550 96 102 5.0 12.0 0.00 0.00 0.00 53 1013.4
20260830223107 96 180 6.0 17.0 0.00 0.00 0.00 53 1013.4
20260830222555 96 126 7.0 17.0 0.00 0.00 0.00 53 1013.4
20260830222054 97 94 6.0 18.0 0.00 0.00 0.00 53 1013.3
20260830221602 97 176 8.0 18.0 0.00 0.00 0.00 52 1013.3
20260830221055 98 152 3.0 13.0 0.00 0.00 0.00 49 1013.3
20260830220554 97 171 1.0 10.0 0.00 0.00 0.00 49 1013.3
20260830215555 97 125 3.0 10.0 0.00 0.00 0.00 49 1013.3
20260830215052 97 113 6.0 11.0 0.00 0.00 0.00 48 1013.3
20260830214611 98 100 3.0 11.0 0.00 0.00 0.00 48 1013.4
20260830214053 98 119 5.0 10.0 0.00 0.00 0.00 48 1013.3
20260830213551 97 96 1.0 8.0 0.00 0.00 0.00 49 1013.4
20260830213104 97 99 1.0 8.0 0.00 0.00 0.00 49 1013.4
20260830212555 97 103 1.0 8.0 0.00 0.00 0.00 49 1013.4
20260830212055 97 153 2.0 8.0 0.00 0.00 0.00 48 1013.6
20260830211558 98 90 2.0 10.0 0.00 0.00 0.00 47 1013.6
20260830211055 98 0 2.0 12.0 0.00 0.00 0.00 47 1013.7
20260830210554 99 117 3.0 12.0 0.00 0.00 0.00 46 1013.9
20260830210142 99 152 4.0 12.0 0.00 0.00 0.00 46 1013.8
20260830205555 99 60 3.0 8.0 0.00 0.00 0.00 45 1013.9
20260830205055 99 88 3.0 8.0 0.00 0.00 0.00 44 1013.9
20260830204611 100 166 3.0 8.0 0.00 0.00 0.00 45 1013.9
20260830204056 100 122 3.0 12.0 0.00 0.00 0.00 45 1014.0
20260830203555 100 194 5.0 12.0 0.00 0.00 0.00 45 1014.2
20260830203110 100 187 4.0 11.0 0.00 0.00 0.00 45 1014.4
20260830202555 99 190 5.0 11.0 0.00 0.00 0.00 45 1014.4
20260830202054 99 181 6.0 11.0 0.00 0.00 0.00 46 1014.5
20260830201609 99 173 5.0 11.0 0.00 0.00 0.00 46 1014.6
20260830201056 99 186 4.0 11.0 0.00 0.00 0.00 47 1014.7
20260830200552 99 103 4.0 12.0 0.00 0.00 0.00 46 1014.7
20260830200115 99 173 6.0 12.0 0.00 0.00 0.00 47 1014.9
20260830195555 98 109 4.0 10.0 0.00 0.00 0.00 47 1014.8
20260830195056 98 89 3.0 8.0 0.00 0.00 0.00 47 1014.9
20260830194645 98 192 2.0 9.0 0.00 0.00 0.00 48 1014.9
20260830194055 98 138 1.0 10.0 0.00 0.00 0.00 48 1015.0
20260830193557 98 73 4.0 16.0 0.00 0.00 0.00 47 1015.2
20260830193120 98 207 5.0 16.0 0.00 0.00 0.00 47 1015.2
20260830192554 98 175 5.0 9.0 0.00 0.00 0.00 49 1015.3
20260830192054 97 175 3.0 9.0 0.00 0.00 0.00 51 1015.4
20260830191612 96 198 5.0 10.0 0.00 0.00 0.00 52 1015.5
20260830191057 96 105 1.0 10.0 0.00 0.00 0.00 51 1015.7
20260830190555 96 161 4.0 10.0 0.00 0.00 0.00 51 1015.8
20260830190104 96 109 1.0 8.0 0.00 0.00 0.00 51 1015.9
20260830185555 96 86 3.0 8.0 0.00 0.00 0.00 49 1016.0
20260830185055 96 194 0.0 6.0 0.00 0.00 0.00 54 1016.1
20260830184614 96 94 2.0 8.0 0.00 0.00 0.00 53 1016.0
20260830184052 96 73 1.0 8.0 0.00 0.00 0.00 54 1016.2
20260830183558 96 180 2.0 9.0 0.00 0.00 0.00 54 1016.3
20260830183118 96 200 4.0 9.0 0.00 0.00 0.00 54 1016.4
20260830182554 96 194 4.0 8.0 0.00 0.00 0.00 55 1016.6
20260830182052 96 202 5.0 12.0 0.00 0.00 0.00 55 1016.5
20260830181602 96 150 3.0 12.0 0.00 0.00 0.00 55 1016.6
20260830181054 95 141 3.0 16.0 0.00 0.00 0.00 59 1016.6
20260830180552 94 181 7.0 16.0 0.00 0.00 0.00 57 1016.8
20260830180108 94 223 4.0 8.0 0.00 0.00 0.00 58 1016.8
20260830175554 95 84 2.0 9.0 0.00 0.00 0.00 57 1016.9
20260830175116 95 139 3.0 9.0 0.00 0.00 0.00 56 1017.1
20260830174558 95 211 5.0 9.0 0.00 0.00 0.00 56 1017.2
20260830174052 95 0 2.0 9.0 0.00 0.00 0.00 57 1017.1
20260830173554 95 129 4.0 10.0 0.00 0.00 0.00 57 1017.3
20260830173136 94 151 4.0 10.0 0.00 0.00 0.00 57 1017.4
20260830172552 94 163 4.0 11.0 0.00 0.00 0.00 60 1017.4
20260830172058 94 115 2.0 11.0 0.00 0.00 0.00 61 1017.4
20260830171605 93 195 5.0 11.0 0.00 0.00 0.00 60 1017.5
20260830171055 92 223 5.0 11.0 0.00 0.00 0.00 61 1017.6
20260830170554 92 187 5.0 11.0 0.00 0.00 0.00 63 1017.7
20260830165554 93 215 5.0 9.0 0.00 0.00 0.00 62 1017.8
20260830165054 93 229 4.0 10.0 0.00 0.00 0.00 63 1017.9
20260830164608 93 239 6.0 15.0 0.00 0.00 0.00 62 1018.0
20260830164054 93 210 6.0 15.0 0.00 0.00 0.00 63 1018.0
20260830163552 92 238 1.0 5.0 0.00 0.00 0.00 64 1018.0
20260830163104 91 153 1.0 8.0 0.00 0.00 0.00 65 1018.1
20260830162552 90 153 3.0 8.0 0.00 0.00 0.00 65 1018.1
20260830162052 90 188 5.0 8.0 0.00 0.00 0.00 67 1018.1
20260830161630 89 217 4.0 9.0 0.00 0.00 0.00 69 1018.1
20260830161051 88 175 5.0 9.0 0.00 0.00 0.00 71 1018.0
20260830160554 88 204 3.0 8.0 0.00 0.00 0.00 72 1018.0
20260830160103 87 205 4.0 8.0 0.00 0.00 0.00 71 1018.0
20260830155557 87 209 3.0 5.0 0.00 0.00 0.00 71 1018.0
20260830155056 87 234 1.0 4.0 0.00 0.00 0.00 72 1018.0
20260830154610 87 192 2.0 6.0 0.00 0.00 0.00 72 1018.0
20260830154052 87 230 3.0 6.0 0.00 0.00 0.00 73 1018.1
20260830153552 88 210 3.0 7.0 0.00 0.00 0.00 73 1018.1
20260830153105 88 259 2.0 9.0 0.00 0.00 0.00 73 1018.0
20260830152552 89 271 4.0 10.0 0.00 0.00 0.00 73 1018.1
20260830152052 89 255 5.0 10.0 0.00 0.00 0.00 74 1017.9
20260830151602 88 254 5.0 9.0 0.00 0.00 0.00 76 1018.0
20260830151052 87 183 3.0 7.0 0.00 0.00 0.00 76 1018.0
20260830150555 87 194 2.0 5.0 0.00 0.00 0.00 79 1017.9
20260830150120 86 180 1.0 7.0 0.00 0.00 0.00 80 1017.9
20260830145557 85 182 1.0 7.0 0.00 0.00 0.00 81 1017.9
20260830145052 85 188 4.0 7.0 0.00 0.00 0.00 82 1017.9
20260830144606 84 215 1.0 6.0 0.00 0.00 0.00 84 1017.9
20260830144055 84 0 1.0 6.0 0.00 0.00 0.00 86 1017.9
20260830143553 83 204 3.0 6.0 0.00 0.00 0.00 88 1017.8
20260830143104 83 196 3.0 6.0 0.00 0.00 0.00 89 1017.9
20260830142558 83 171 3.0 7.0 0.00 0.00 0.00 90 1017.9
20260830142055 82 178 3.0 7.0 0.00 0.00 0.00 91 1018.0
20260830141558 82 145 0.0 3.0 0.00 0.00 0.00 92 1017.9
20260830141054 82 0 0.0 4.0 0.00 0.00 0.00 93 1018.0
20260830140553 82 0 1.0 4.0 0.00 0.00 0.00 93 1017.9
20260830140104 81 177 0.0 3.0 0.00 0.00 0.00 94 1017.9
20260830135553 81 0 0.0 1.0 0.00 0.00 0.00 94 1017.9
20260830135055 81 0 0.0 0.0 0.00 0.00 0.00 94 1017.9
20260830134601 80 0 0.0 0.0 0.00 0.00 0.00 94 1017.7
20260830134055 80 0 0.0 0.0 0.00 0.00 0.00 94 1017.7
20260830133558 79 0 0.0 0.0 0.00 0.00 0.00 94 1017.7
20260830133105 78 0 0.0 0.0 0.00 0.00 0.00 94 1017.6
20260830132554 78 0 0.0 0.0 0.00 0.00 0.00 94 1017.6
20260830132053 77 0 0.0 0.0 0.00 0.00 0.00 94 1017.6
20260830131637 77 0 0.0 0.0 0.00 0.00 0.00 94 1017.6
20260830131052 76 0 0.0 0.0 0.00 0.00 0.00 94 1017.5
20260830130553 75 0 0.0 0.0 0.00 0.00 0.00 93 1017.4
20260830125555 74 0 0.0 0.0 0.00 0.00 0.00 93 1017.4
20260830125054 73 0 0.0 0.0 0.00 0.00 0.00 93 1017.4
20260830124600 73 0 0.0 0.0 0.00 0.00 0.00 92 1017.3
20260830124054 73 0 0.0 0.0 0.00 0.00 0.00 92 1017.2
20260830123551 72 0 0.0 0.0 0.00 0.00 0.00 92 1017.1
20260830123121 72 0 0.0 0.0 0.00 0.00 0.00 92 1017.1
20260830122555 72 0 0.0 0.0 0.00 0.00 0.00 92 1017.0
20260830122055 72 0 0.0 0.0 0.00 0.00 0.00 92 1017.0
20260830121600 72 0 0.0 0.0 0.00 0.00 0.00 92 1017.0
20260830121051 72 0 0.0 0.0 0.00 0.00 0.00 92 1017.0
20260830120554 72 0 0.0 0.0 0.00 0.00 0.00 91 1017.0
20260830120105 72 0 0.0 0.0 0.00 0.00 0.00 91 1017.0
20260830115557 73 0 0.0 0.0 0.00 0.00 0.00 91 1016.7
20260830115057 73 0 0.0 0.0 0.00 0.00 0.00 91 1016.8
20260830114605 73 0 0.0 0.0 0.00 0.00 0.00 91 1016.8
20260830114055 73 0 0.0 0.0 0.00 0.00 0.00 91 1016.7
20260830113552 73 0 0.0 0.0 0.00 0.00 0.00 91 1016.7
20260830113103 73 0 0.0 0.0 0.00 0.00 0.00 91 1016.6
20260830112552 73 0 0.0 0.0 0.00 0.00 0.00 91 1016.8
20260830112054 73 0 0.0 0.0 0.00 0.00 0.00 91 1016.8
20260830111556 73 0 0.0 0.0 0.00 0.00 0.00 91 1016.8
20260830111059 73 0 0.0 0.0 0.00 0.00 0.00 91 1016.6
20260830110555 73 0 0.0 0.0 0.00 0.00 0.00 91 1016.6
20260830110101 73 0 0.0 0.0 0.00 0.00 0.00 91 1016.6
20260830105556 74 0 0.0 0.0 0.00 0.00 0.00 91 1016.6
20260830105054 74 0 0.0 0.0 0.00 0.00 0.00 91 1016.5
20260830104621 74 0 0.0 0.0 0.00 0.00 0.00 91 1016.5
20260830104055 74 0 0.0 0.0 0.00 0.00 0.00 91 1016.5
20260830103552 74 0 0.0 0.0 0.00 0.00 0.00 91 1016.5
20260830103102 74 0 0.0 0.0 0.00 0.00 0.00 91 1016.4
20260830102554 74 0 0.0 0.0 0.00 0.00 0.00 91 1016.4
20260830102054 73 0 0.0 0.0 0.00 0.00 0.00 90 1016.3
20260830101559 73 0 0.0 0.0 0.00 0.00 0.00 90 1016.4
20260830101054 73 0 0.0 0.0 0.00 0.00 0.00 90 1016.4
20260830100554 73 0 0.0 0.0 0.00 0.00 0.00 90 1016.3
20260830100106 74 0 0.0 0.0 0.00 0.00 0.00 90 1016.4
20260830095558 74 0 0.0 0.0 0.00 0.00 0.00 90 1016.4
20260830095055 74 0 0.0 0.0 0.00 0.00 0.00 90 1016.3
20260830094605 74 0 0.0 0.0 0.00 0.00 0.00 90 1016.3
20260830094054 74 0 0.0 0.0 0.00 0.00 0.00 90 1016.4
20260830093551 74 0 0.0 0.0 0.00 0.00 0.00 90 1016.4
20260830093058 74 0 0.0 0.0 0.00 0.00 0.00 90 1016.4
20260830092554 74 0 0.0 0.0 0.00 0.00 0.00 90 1016.5
20260830092058 74 0 0.0 0.0 0.00 0.00 0.00 90 1016.4
20260830091606 74 0 0.0 0.0 0.00 0.00 0.00 89 1016.4
20260830091054 74 0 0.0 0.0 0.00 0.00 0.00 89 1016.6
20260830090557 74 0 0.0 0.0 0.00 0.00 0.00 89 1016.6
20260830085551 74 0 0.0 0.0 0.00 0.01 0.00 89 1016.6
20260830085051 74 0 0.0 0.0 0.00 0.01 0.00 89 1016.5
20260830084610 75 0 0.0 0.0 0.00 0.01 0.00 89 1016.5
20260830084052 75 0 0.0 0.0 0.00 0.01 0.00 89 1016.5
20260830083552 75 0 0.0 0.0 0.00 0.01 0.00 88 1016.5
20260830083107 75 0 0.0 0.0 0.00 0.01 0.00 88 1016.5
20260830082552 75 0 0.0 0.0 0.00 0.01 0.00 88 1016.5
20260830082053 75 0 0.0 0.0 0.00 0.01 0.00 88 1016.5
20260830081602 75 0 0.0 0.0 0.00 0.01 0.00 88 1016.6
20260830081052 76 0 0.0 0.0 0.00 0.01 0.00 88 1016.6
20260830080558 76 0 0.0 0.0 0.00 0.01 0.00 88 1016.7
20260830080108 76 0 0.0 0.0 0.00 0.01 0.00 88 1016.7
20260830075551 76 0 0.0 0.0 0.00 0.01 0.00 88 1016.7
20260830075056 76 0 0.0 0.0 0.00 0.01 0.00 88 1016.7
20260830074608 76 0 0.0 0.0 0.00 0.01 0.00 88 1016.6
20260830074054 77 0 0.0 0.0 0.00 0.01 0.00 88 1016.6
20260830073552 77 0 0.0 0.0 0.00 0.01 0.00 88 1016.7
20260830073116 77 0 0.0 0.0 0.00 0.01 0.00 88 1016.8
20260830072552 77 0 0.0 0.0 0.00 0.01 0.00 88 1016.8
20260830072052 77 0 0.0 0.0 0.00 0.01 0.00 88 1016.8
20260830071605 78 0 0.0 0.0 0.00 0.01 0.00 88 1016.8
20260830071053 78 0 0.0 0.0 0.00 0.01 0.00 88 1016.7
20260830070552 78 0 0.0 0.0 0.00 0.01 0.00 87 1016.7
20260830065555 78 0 0.0 0.0 0.00 0.01 0.00 88 1016.8
20260830065058 78 0 0.0 0.0 0.00 0.01 0.00 88 1016.8
20260830064635 78 0 0.0 0.0 0.00 0.01 0.00 88 1016.9
20260830064053 79 0 0.0 0.0 0.00 0.01 0.00 88 1016.9
20260830063558 79 0 0.0 0.0 0.00 0.01 0.00 88 1016.9
20260830063104 79 0 0.0 3.0 0.00 0.01 0.00 88 1017.0
20260830062553 79 0 0.0 3.0 0.00 0.01 0.00 88 1017.0
20260830062051 79 190 0.0 4.0 0.00 0.01 0.00 88 1016.9
20260830061614 79 0 0.0 4.0 0.00 0.01 0.00 88 1017.0
20260830061052 79 0 1.0 4.0 0.00 0.01 0.00 88 1016.9
20260830060555 79 188 2.0 4.0 0.00 0.01 0.00 88 1016.8
20260830055559 79 208 3.0 6.0 0.00 0.01 0.00 87 1016.8
20260830055057 80 210 3.0 5.0 0.00 0.01 0.00 87 1016.6
20260830054606 80 198 2.0 5.0 0.00 0.01 0.00 87 1016.7
20260830054054 80 194 2.0 5.0 0.00 0.01 0.00 87 1016.7
20260830053552 80 190 2.0 7.0 0.00 0.01 0.00 87 1016.8
20260830053101 80 200 3.0 7.0 0.00 0.01 0.00 87 1016.7
20260830052552 80 200 2.0 6.0 0.00 0.01 0.00 87 1016.8
20260830052054 80 202 3.0 6.0 0.00 0.01 0.00 87 1016.8
20260830051612 80 181 3.0 6.0 0.00 0.01 0.00 86 1016.8
20260830051056 80 184 3.0 6.0 0.00 0.01 0.00 86 1017.0
20260830050555 80 178 1.0 6.0 0.00 0.01 0.00 86 1016.9
20260830050115 80 182 2.0 6.0 0.00 0.01 0.00 86 1016.9
20260830045555 80 178 3.0 7.0 0.00 0.01 0.01 86 1017.0
20260830045055 81 179 2.0 7.0 0.00 0.01 0.01 85 1017.0
20260830044621 81 184 2.0 8.0 0.00 0.01 0.01 85 1016.9
20260830044052 81 198 3.0 8.0 0.00 0.01 0.01 85 1017.0
20260830043552 81 186 3.0 7.0 0.00 0.01 0.01 85 1016.9
20260830043106 81 197 3.0 7.0 0.00 0.01 0.01 84 1016.9
20260830042552 81 175 2.0 7.0 0.00 0.01 0.01 84 1016.9
20260830042051 81 182 2.0 7.0 0.00 0.01 0.01 84 1016.9
20260830041627 81 179 1.0 7.0 0.00 0.01 0.01 84 1016.9
20260830041055 81 178 2.0 7.0 0.00 0.01 0.01 84 1016.9
20260830040552 81 188 2.0 7.0 0.00 0.01 0.01 84 1016.9
20260830040111 81 194 3.0 6.0 0.00 0.01 0.01 83 1016.8
20260830035552 81 191 2.0 6.0 0.00 0.01 0.01 83 1016.8
20260830035052 81 180 3.0 6.0 0.00 0.01 0.01 83 1016.7
20260830034606 82 163 3.0 6.0 0.00 0.01 0.01 83 1016.7
20260830034054 82 175 2.0 5.0 0.00 0.01 0.01 82 1016.7
20260830033551 82 171 1.0 5.0 0.00 0.01 0.01 82 1016.8
20260830033116 82 192 2.0 5.0 0.00 0.01 0.01 82 1016.6
20260830032551 82 193 2.0 5.0 0.00 0.01 0.01 81 1016.6
20260830032055 82 173 1.0 5.0 0.00 0.01 0.01 81 1016.7
20260830031612 82 168 2.0 4.0 0.00 0.01 0.01 80 1016.5
20260830031053 82 168 1.0 4.0 0.00 0.01 0.01 80 1016.4
20260830030553 83 167 0.0 3.0 0.00 0.01 0.01 79 1016.5
20260830030103 83 168 0.0 2.0 0.00 0.01 0.01 79 1016.3
20260830025552 83 0 0.0 4.0 0.00 0.01 0.01 79 1016.3
20260830025053 83 168 1.0 4.0 0.00 0.01 0.01 78 1016.2